Tracking 28518 objects as of 1-Mar-2024
HD Live streaming from Space Station
objects crossing your sky now

STARLINK-30917

Track STARLINK-30917 now!
10-day predictions
STARLINK-30917 is classified as:


NORAD ID: 58419
Int'l Code: 2023-180T
Perigee: 565.7 km
Apogee: 566.8 km
Inclination: 43.0 °
Period: 95.8 minutes
Semi major axis: 6937 km
RCS: Unknown
Launch date: November 22, 2023
Source: United States (US)
Launch site: AIR FORCE EASTERN TEST RANGE (AFETR)
Your satellite tracking list
Your tracking list is empty




NASA's NSSDC Master Catalog

Two Line Element Set (TLE):
1 58419U 23180T   24060.50625512  .00004400  00000-0  34057-3 0  9999
2 58419  43.0011 112.3780 0000800 256.7343 103.3410 15.02536514 16391
Source of the keplerian elements: AFSPC